Location: Newark
(47.3150°N, 5.1150°E)
Time: 06:57:38
(UTC+00:00)

O/OREOS (USA 219) - Pass Details

Date: 24 December 2019
Orbit: 621 x 646 km, 72.0° (Epoch: 22 May)

Event Time Altitude Azimuth Distance (km) Brightness Sun altitude
Exits shadow 04:19:12 15° 161° (SSE) 1,691 ? -30.3°
Drops below altitude 10° 04:20:01 10° 160° (SSE) 2,013 ? -30.1°
Sets 04:22:16 0° 159° (SSE) 2,912 ? -29.7°
